Location: L�gaud
(45.7115°N, 1.7775°E)
Time: 18:33:08
(UTC+00:00)

USA 186 - Pass Details

Date: 03 March 2021
Orbit: 261 x 429 km, 96.9° (Epoch: 15 April)

Event Time Altitude Azimuth Distance (km) Brightness Sun altitude
Exits shadow 19:59:54 12° 319° (NW) 1,075 4.5 -24.5°
Drops below altitude 10° 20:00:07 10° 322° (NW) 1,156 4.7 -24.6°
Sets 20:02:14 0° 337° (NNW) 2,017 5.8 -24.9°
